Flag for Austria Weather past 2 weeks in Feldkirch, Vorarlberg, Austria

Now
36 °F

Passing clouds.


Feels Like: 31 °F
Forecast: 20 / 36 °F
Wind: 6 mph from South

Location: Vaduz

Current Time: Dec 27, 2014 at 7:49:35 AM

Latest Report: Dec 27, 2014 at 7:00 AM


Visibility: 1 mi

Pressure: 29.85 "Hg

Humidity: 47%

Dew point: 17 °F

Location of FeldkirchLocation

Historic Weather in Feldkirch — Graph

°F

Feldkirch temperature yesterday

Maximum temperature yesterday: 38 °F (at 12:00 AM)
Minimum temperature yesterday: 31 °F (at 11:00 PM)
Average temperature yesterday: 33 °F

Past Weeks' High & Low Weather Summary

 TemperatureHumidityPressure
High59 °F (Dec 13, 2:00 PM)99% (Dec 26, 2:00 AM)30.63 "Hg (Dec 26, 2:00 AM)
Low31 °F (Dec 26, 11:00 PM)27% (Dec 12, 11:00 PM)29.83 "Hg (Dec 12, 11:00 PM)
Average43 °F69%30.21 "Hg
* Reported Dec 12 6:00 AM — Dec 27 6:00 AM, Feldkirch, Weather by CustomWeather, © 2014

Note: Actual official high and low records may vary slightly from our data, if they occured in-between our weather recording intervals... More about our weather records

Advertising

Feldkirch weather history for previous 24 hours

 ConditionsComfort  
Time TempWeatherWind HumidityBarometerVisibility
6:00 AM
Dec 27
34 °FChilly.6 mph50%29.92 "HgN/A
5:00 AM33 °FChilly.5 mph61%30.02 "HgN/A
4:00 AM32 °FFog.3 mph69%30.11 "Hg1 mi
3:00 AM33 °FChilly.3 mph67%30.16 "HgN/A
2:00 AM32 °FChilly.5 mph74%30.20 "HgN/A
1:00 AM32 °FChilly.3 mph82%30.24 "HgN/A
12:00 AM33 °FChilly.2 mph87%30.29 "HgN/A
11:00 PM
Dec 26
31 °FChilly.3 mph93%30.34 "HgN/A
10:00 PM33 °FLight rain. Overcast.2 mph94%30.37 "Hg5 mi
9:00 PM32 °FChilly.No wind98%30.39 "HgN/A
8:00 PM33 °FChilly.1 mph96%30.41 "HgN/A
7:00 PM33 °FChilly.1 mph95%30.41 "HgN/A
6:00 PM33 °FChilly.3 mph96%30.42 "HgN/A
5:00 PM34 °FChilly.3 mph90%30.43 "HgN/A
4:00 PM34 °FFog.3 mph93%30.44 "Hg3 mi
3:00 PM35 °FChilly.3 mph93%30.43 "HgN/A
2:00 PM34 °FChilly.1 mph94%30.44 "HgN/A
1:00 PM34 °FLight rain. Low clouds.3 mph95%30.45 "Hg3 mi
12:00 PM35 °FChilly.3 mph86%30.45 "HgN/A
11:00 AM34 °FChilly.3 mph91%30.47 "HgN/A
10:00 AM34 °FFog.3 mph91%30.47 "Hg3 mi
9:00 AM34 °FChilly.5 mph91%30.46 "HgN/A
8:00 AM34 °FChilly.3 mph90%30.46 "HgN/A
7:00 AM33 °FOvercast.2 mph93%30.45 "Hg4 mi
Weather by CustomWeather, © 2014

See weather overviewHow to use our weather pages